This demonstration page uses our WeatherBlox Daily Observations layout. Learn more.

36.17497, -115.13722

Hourly Observations for February 4, 2015

Temp ( °F °C ) Dew Point ( °F °C ) Humidity (%) Winds ( mph kmh ) Pressure ( in mb ) Visibility ( mi km ) Precip ( " mm )
12:53 am 00:53 Clear 50 10 37 2.8 61 61 WNW 3 6 30.13 1020 10 16.0934 0 0
1:53 am 01:53 Clear 50 10 36 2.2 59 59 NW 5 7 30.14 1021 10 16.0934 0 0
2:53 am 02:53 Clear 50 10 35 1.7 57 57 WNW 5 7 30.13 1020 10 16.0934 0 0
3:53 am 03:53 Clear 49 9.4 34 1.1 56 56 N 8 13 30.13 1020 10 16.0934 0 0
4:53 am 04:53 Clear 47 8.3 34 1.1 61 61 NW 7 11 30.15 1021 10 16.0934 0 0
5:53 am 05:53 Clear 47 8.3 34 1.1 61 61 NW 7 11 30.16 1022 10 16.0934 0 0
6:53 am 06:53 Sunny 46 7.8 33 0.6 61 61 NNW 3 6 30.19 1022 10 16.0934 0 0
7:53 am 07:53 Sunny 50 10 35 1.7 57 57 Calm 30.21 1023 10 16.0934 0 0
8:53 am 08:53 Sunny 56 13.3 34 1.1 44 44 Calm 30.22 1023 10 16.0934 0 0
9:53 am 09:53 Sunny 60 15.6 36 2.2 41 41 Calm 30.23 1024 10 16.0934 0 0
10:53 am 10:53 Sunny 61 16.1 36 2.2 39 39 SSE 7 11 30.22 1023 10 16.0934 0 0
11:53 am 11:53 Sunny 64 17.8 36 2.2 35 35 ESE 5 7 30.19 1022 10 16.0934 0 0
12:53 pm 12:53 Sunny 66 18.9 36 2.2 33 33 E 6 9 30.16 1021 10 16.0934 0 0
1:53 pm 13:53 Sunny 68 20 35 1.7 30 30 ESE 6 9 30.13 1020 10 16.0934 0 0
2:53 pm 14:53 Sunny 69 20.6 34 1.1 27 27 SE 6 9 30.11 1020 10 16.0934 0 0
3:53 pm 15:53 Sunny 69 20.6 34 1.1 27 27 ESE 3 6 30.12 1020 10 16.0934 0 0
4:53 pm 16:53 Sunny 67 19.4 35 1.7 31 31 SE 5 7 30.12 1020 10 16.0934 0 0
5:53 pm 17:53 Clear 66 18.9 35 1.7 32 32 Calm 30.14 1021 10 16.0934 0 0
6:53 pm 18:53 Clear 63 17.2 35 1.7 35 35 Calm 30.15 1021 10 16.0934 0 0
7:53 pm 19:53 Clear 59 15 38 3.3 46 46 Calm 30.16 1021 10 16.0934 0 0
8:53 pm 20:53 Clear 56 13.3 38 3.3 51 51 WNW 6 9 30.17 1022 10 16.0934 0 0
9:53 pm 21:53 Clear 56 13.3 38 3.3 51 51 W 5 7 30.18 1022 10 16.0934 0 0
10:53 pm 22:53 Clear 55 12.8 37 2.8 51 51 SW 5 7 30.19 1022 10 16.0934 0 0
11:53 pm 23:53 Clear 52 11.1 39 3.9 61 61 NW 3 6 30.18 1022 10 16.0934 0 0

Powered by AerisWeather